[[{"header":{"parameterUnit":"m.s-1","parameterCategory":1,"la1":30.2991,"la2":30.254,"lo1":-89.0895,"lo2":-89.0444,"dy":0.0017,"dx":0.0017,"nx":28,"ny":28,"refTime":"2023-09-30T21:00:00:Z","depth":0,"parameterNumber":2,"parameterNumberName":"U-component_of_WINDS"},"data":[0,0,0,0,0,0,0,0,0,0,0,0,0,0,0,0,0,0,0,0,0,0,0,0,0,0,0,0,0,0,0,0,0,0,0,0,0,0,0,0,0,0,0,0,0,0,0,0,0,0,0,0,0,0,0,0,0,0,-1.8616,-1.8615,0,-1.8607,-1.8607,-1.8607,-1.8503,-1.85,-1.8497,-1.8495,-1.8488,-1.849,-1.8492,0,0,0,0,0,0,0,0,0,0,0,0,0,-1.8544,-1.8546,-1.8616,-1.8615,-1.8615,-1.8607,-1.8607,-1.8607,-1.8503,-1.85,-1.8497,-1.8494,-1.8487,-1.8489,-1.8492,0,0,0,0,0,0,0,0,0,0,0,0,0,-1.8559,-1.8546,-1.8616,-1.8563,-1.8558,-1.8607,-1.8607,-1.8607,-1.8504,-1.85,-1.8496,-1.8492,-1.8486,-1.8489,-1.8493,-1.8592,0,0,-1.8503,-1.8504,0,0,0,0,0,0,0,0,-1.8559,-1.8562,-1.8571,-1.8566,-1.8561,-1.8552,-1.8579,-1.8602,-1.8505,-1.8524,-1.8495,-1.849,-1.8512,-1.8513,-1.852,-1.8592,-1.8591,-1.8503,-1.8505,-1.8507,-1.8508,0,0,0,0,0,0,0,-1.8558,-1.8562,-1.8612,-1.8571,-1.8565,-1.854,-1.8538,-1.8583,-1.8541,-1.8522,-1.8515,-1.8515,-1.8509,-1.8517,-1.8519,-1.8591,-1.8503,-1.8506,-1.8508,-1.8509,-1.8745,-1.8749,0,0,0,0,0,0,-1.8564,-1.8562,-1.8612,-1.8612,-1.855,-1.8544,-1.8542,-1.8559,-1.854,-1.8533,-1.8518,-1.851,-1.8513,-1.8515,-1.8519,-1.8635,-1.8507,-1.851,-1.8512,-1.8741,-1.8746,-1.8751,0,0,0,0,0,0,-1.8563,-1.8569,-1.8613,-1.8585,-1.8588,-1.855,-1.857,-1.8561,-1.8569,-1.8537,-1.8529,-1.8535,-1.851,-1.8514,-1.8575,-1.8633,-1.8511,-1.8514,-1.8736,-1.8742,-1.8748,-1.8868,0,0,0,0,0,0,-1.8561,-1.8569,-1.8607,-1.8586,-1.859,-1.8669,-1.8573,-1.8563,-1.8575,-1.8564,-1.855,-1.8544,-1.8508,-1.857,-1.8578,-1.8635,-1.8517,-1.8731,-1.8739,-1.8746,-1.8858,-1.8877,-1.8894,0,0,0,0,0,-1.8559,-1.8641,-1.8609,-1.8616,-1.8636,-1.8672,-1.8675,-1.8631,-1.858,-1.8617,-1.8597,-1.8544,-1.8625,-1.8577,-1.8585,-1.8645,-1.8727,-1.8736,-1.8746,-1.8851,-1.8874,-1.8893,0,0,0,0,0,0,-1.8669,-1.8637,-1.8602,-1.8679,-1.8679,-1.8655,-1.8701,-1.8657,-1.8672,-1.8661,-1.8606,-1.8604,-1.8674,-1.8665,-1.8612,-1.874,-1.8667,-1.8678,-1.8744,-1.8765,-1.8783,-1.8784,-1.852,0,0,0,0,0,-1.8703,-1.8735,-1.8705,-1.8776,-1.8778,-1.874,-1.8754,-1.872,-1.8718,-1.8718,-1.8702,-1.8703,-1.8728,-1.8746,-1.8768,-1.8856,-1.8852,-1.8901,-1.8919,-1.8933,-1.8944,-1.8991,-1.9013,-1.8782,-1.8782,-1.8782,0,0,-1.8772,-1.8758,-1.8782,-1.8798,-1.8794,-1.883,-1.874,-1.8781,-1.8807,-1.8724,-1.8781,-1.8769,-1.8766,-1.8842,-1.8874,-1.8837,-1.9007,-1.8945,-1.8957,-1.896,-1.9003,-1.9025,-1.9045,-1.8788,-1.8787,-1.8786,0,0,-1.8917,-1.8909,-1.8968,-1.8966,-1.8961,-1.8935,-1.8949,-1.8932,-1.8921,-1.8976,-1.8915,-1.8945,-1.899,-1.8991,-1.8997,-1.9143,-1.9095,-1.9151,-1.9243,-1.929,-1.9308,-1.9324,-1.9377,-1.9397,-1.9162,-1.9162,-1.9162,0,-1.9004,-1.9054,-1.9004,-1.9049,-1.9059,-1.8985,-1.9045,-1.9045,-1.9048,-1.9057,-1.9014,-1.9069,-1.9062,-1.9137,-1.9173,-1.918,-1.9195,-1.9153,-1.931,-1.9325,-1.9339,-1.9389,-1.9409,-1.9169,-1.9168,-1.9168,-1.9167,0,-1.9161,-1.9197,-1.9245,-1.925,-1.9264,-1.9317,-1.9276,-1.9297,-1.9262,-1.9241,-1.9299,-1.9287,-1.9306,-1.9321,-1.9287,-1.9392,-1.9369,-1.9319,-1.9244,-1.9369,-1.9415,-1.9434,-1.9179,-1.9177,-1.9174,-1.9173,0,0,-1.9376,-1.9352,-1.9371,-1.9372,-1.9362,-1.9389,-1.9438,-1.9455,-1.9475,-1.9479,-1.952,-1.956,-1.9514,-1.9521,-1.9487,-1.9527,-1.9645,-1.9472,-1.9471,-1.9506,-1.9761,-1.9799,-1.9822,-1.9613,-1.9616,-1.9619,-1.9761,0,-1.9516,-1.9599,-1.9556,-1.9644,-1.9677,-1.9607,-1.965,-1.9649,-1.963,-1.9656,-1.9635,-1.9665,-1.9601,-1.9605,-1.9642,-1.9623,-1.9695,-1.9612,-1.9651,-1.9653,-1.9656,-1.9846,-1.9887,-2.0022,-1.9779,-1.9782,-1.9784,0,-1.9691,-1.9703,-1.9795,-1.9778,-1.979,-1.983,-1.9843,-1.9868,-1.9865,-1.9848,-1.9857,-1.9813,-1.9861,-1.9786,-1.9852,-1.9796,-1.981,-1.9802,-1.9807,-1.981,-1.9727,-1.9856,-2.0063,-2.0084,-1.9812,-1.9809,-1.9807,0,-1.984,-1.9878,-1.9938,-1.9942,-1.9924,-1.9953,-1.9947,-1.994,-1.9954,-1.9966,-1.9974,-1.9991,-2.0001,-2.0016,-1.9978,-1.9927,-2.005,-1.9971,-2.0038,-2.004,-2.0068,-2.0067,-2.0283,-2.0075,-2.0075,-2.0075,-2.0074,0,-2.0002,-2.0061,-2.0005,-2.0042,-2.0107,-2.0057,-2.0122,-2.0109,-2.0103,-2.0137,-2.0078,-2.0111,-2.0058,-2.0087,-2.0057,-2.0117,-2.0122,-2.0111,-2.0102,-2.0117,-2.0118,-2.0126,-2.0116,-2.008,-2.0079,-2.0078,-2.0077,0,-2.0179,-2.0144,-2.0205,-2.0183,-2.0179,-2.0228,-2.0209,-2.0243,-2.022,-2.0264,-2.0271,-2.0236,-2.0266,-2.0229,-2.0256,-2.0237,-2.0318,-2.0295,-2.032,-2.0313,-2.0383,-2.0378,-2.0612,-2.0641,-2.0414,-2.0416,-2.0418,0,-2.0286,-2.033,-2.0312,-2.033,-2.0328,-2.0358,-2.0371,-2.0324,-2.0341,-2.0341,-2.0375,-2.04,-2.0418,-2.047,-2.0447,-2.0467,-2.0445,-2.0526,-2.0448,-2.0462,-2.0448,-2.0447,-2.0451,-2.0542,-2.0545,-2.0547,-2.0549,0,-2.0478,-2.0459,-2.048,-2.0497,-2.0514,-2.0525,-2.053,-2.0549,-2.05,-2.0522,-2.0551,-2.0565,-2.0593,-2.0619,-2.0633,-2.0627,-2.0581,-2.0574,-2.059,-2.0606,-2.0619,-2.0615,-2.0364,-2.0569,-2.0567,-2.0565,-2.0564,-2.0564,-2.0624,-2.066,-2.0654,-2.068,-2.068,-2.0687,-2.0718,-2.0699,-2.0723,-2.0741,-2.0712,-2.075,-2.0746,-2.076,-2.076,-2.079,-2.0755,-2.0779,-2.0786,-2.0793,-2.0804,-2.0613,-2.0792,-2.0791,-2.0791,-2.079,-2.079,0,-2.0815,-2.0808,-2.0832,-2.0842,-2.0863,-2.0817,-2.0821,-2.0842,-2.0876,-2.0876,-2.0895,-2.093,-2.0955,-2.0934,-2.0955,-2.0983,-2.0962,-2.099,-2.0988,-2.0988,-2.0833,-2.0817,-2.1006,-2.1006,-2.1006,-2.1006,-2.1006,-2.1006,-2.0917,-2.0976,-2.0956,-2.1014,-2.1006,-2.1043,-2.1049,-2.1056,-2.1056,-2.1098,-2.1118,-2.1104,-2.1096,-2.1116,-2.1137,-2.113,-2.1142,-2.1178,-2.1164,-2.102,-2.0999,-2.0978,-2.0963,-2.118,-2.118,-2.1316,-2.1317,-2.1318]},{"header":{"parameterUnit":"m.s-1","parameterCategory":1,"la1":30.2991,"la2":30.254,"lo1":-89.0895,"lo2":-89.0444,"dy":0.0017,"dx":0.0017,"nx":28,"ny":28,"refTime":"2023-09-30T21:00:00:Z","depth":0,"parameterNumber":3,"parameterNumberName":"V-component_of_WINDS"},"data":[0,0,0,0,0,0,0,0,0,0,0,0,0,0,0,0,0,0,0,0,0,0,0,0,0,0,0,0,0,0,0,0,0,0,0,0,0,0,0,0,0,0,0,0,0,0,0,0,0,0,0,0,0,0,0,0,0,0,0.2248,0.2248,0,0.2212,0.2212,0.2211,0.2192,0.2191,0.2191,0.2191,0.2151,0.215,0.2149,0,0,0,0,0,0,0,0,0,0,0,0,0,0.2297,0.2297,0.2248,0.2248,0.2247,0.2212,0.2212,0.2211,0.2192,0.2191,0.2191,0.2191,0.2152,0.215,0.2149,0,0,0,0,0,0,0,0,0,0,0,0,0,0.227,0.2296,0.2248,0.2233,0.2232,0.2212,0.2212,0.2211,0.2192,0.2191,0.2191,0.2191,0.2152,0.215,0.2149,0.2141,0,0,0.2144,0.2144,0,0,0,0,0,0,0,0,0.2272,0.2268,0.2236,0.2234,0.2232,0.2206,0.2214,0.2187,0.2192,0.2207,0.2191,0.2191,0.2169,0.2166,0.216,0.2139,0.2137,0.2144,0.2143,0.2142,0.2142,0,0,0,0,0,0,0,0.2274,0.227,0.2234,0.2236,0.2233,0.2228,0.2224,0.2209,0.2189,0.2205,0.2204,0.22,0.2168,0.2161,0.2159,0.2137,0.2144,0.2143,0.2142,0.2141,0.2108,0.2108,0,0,0,0,0,0,0.2278,0.2271,0.2235,0.2233,0.2252,0.2227,0.2222,0.2215,0.2189,0.2185,0.22,0.2199,0.2164,0.216,0.2157,0.2146,0.2142,0.2141,0.214,0.2107,0.2108,0.2108,0,0,0,0,0,0,0.2279,0.2275,0.2236,0.2252,0.2246,0.2226,0.2218,0.2214,0.2207,0.2185,0.2181,0.2197,0.2164,0.2159,0.2145,0.2144,0.214,0.2139,0.2107,0.2107,0.2108,0.2124,0,0,0,0,0,0,0.2281,0.2276,0.2273,0.2252,0.2246,0.2226,0.2218,0.2213,0.2205,0.2203,0.2181,0.2177,0.2163,0.2148,0.2144,0.2142,0.2138,0.2107,0.2107,0.2108,0.2123,0.2124,0.2125,0,0,0,0,0,0.2283,0.2278,0.2273,0.2269,0.2242,0.2226,0.2222,0.2208,0.2205,0.2201,0.2187,0.2178,0.2145,0.2146,0.2142,0.214,0.2107,0.2107,0.2108,0.2123,0.2124,0.2125,0,0,0,0,0,0,0.2298,0.2275,0.2269,0.2258,0.2244,0.2223,0.2218,0.221,0.2196,0.2195,0.2176,0.2172,0.2159,0.2148,0.215,0.2131,0.2125,0.2124,0.2138,0.214,0.2141,0.2143,0.2136,0,0,0,0,0,0.2301,0.2291,0.2271,0.2262,0.2256,0.2239,0.2231,0.2221,0.2206,0.22,0.2185,0.2169,0.2156,0.2147,0.2133,0.2122,0.2116,0.2118,0.2119,0.212,0.2119,0.2113,0.2113,0.2108,0.2108,0.2108,0,0,0.2305,0.2291,0.2286,0.2265,0.2254,0.2243,0.2234,0.2223,0.2214,0.2198,0.2184,0.2172,0.2154,0.2141,0.2135,0.2132,0.212,0.212,0.2121,0.212,0.2113,0.2113,0.2114,0.2108,0.2108,0.2108,0,0,0.2307,0.2296,0.2288,0.2277,0.226,0.2249,0.2247,0.2227,0.2219,0.2205,0.2193,0.2182,0.2159,0.2147,0.2138,0.2137,0.2127,0.2132,0.2138,0.2131,0.2132,0.2132,0.2131,0.2132,0.2132,0.2132,0.2132,0,0.2314,0.2299,0.2285,0.2275,0.2266,0.2252,0.2244,0.2234,0.2213,0.2207,0.2203,0.2175,0.2161,0.2146,0.2146,0.2139,0.2136,0.2135,0.2133,0.2133,0.2133,0.2132,0.2132,0.2133,0.2133,0.2133,0.2132,0,0.2309,0.2298,0.2294,0.2275,0.2266,0.2257,0.2241,0.2233,0.2224,0.2213,0.2199,0.2183,0.2166,0.2161,0.2152,0.2144,0.2143,0.2137,0.2131,0.2135,0.2134,0.2133,0.2134,0.2134,0.2133,0.2133,0,0,0.2319,0.2294,0.2293,0.2284,0.2265,0.2256,0.2246,0.2231,0.2225,0.2211,0.2202,0.2183,0.2177,0.2167,0.2156,0.2151,0.2151,0.2145,0.2144,0.2146,0.2141,0.2146,0.2146,0.2145,0.2144,0.2144,0.2143,0,0.2318,0.2301,0.2289,0.2276,0.2266,0.2253,0.2245,0.2231,0.2221,0.221,0.2197,0.2185,0.2178,0.2172,0.2166,0.2152,0.2149,0.2152,0.2135,0.2135,0.214,0.2145,0.215,0.2149,0.2142,0.2142,0.2142,0,0.2315,0.2304,0.229,0.2273,0.2268,0.2261,0.2246,0.2236,0.2221,0.2213,0.2202,0.2191,0.218,0.2176,0.2159,0.2161,0.2153,0.2146,0.2145,0.2143,0.2138,0.2143,0.2149,0.2149,0.2141,0.2141,0.2141,0,0.2324,0.2305,0.2295,0.2288,0.2267,0.2262,0.2253,0.2238,0.223,0.2216,0.2211,0.2196,0.2188,0.2176,0.2161,0.216,0.2146,0.2141,0.2139,0.2139,0.2136,0.2136,0.2141,0.2132,0.2132,0.2132,0.2132,0,0.2325,0.2317,0.2298,0.2292,0.2283,0.2269,0.226,0.2249,0.2236,0.2227,0.2214,0.2206,0.2187,0.2176,0.2164,0.2152,0.2149,0.2142,0.2139,0.2143,0.2144,0.2137,0.2136,0.2132,0.2132,0.2132,0.2132,0,0.2333,0.232,0.2308,0.229,0.2285,0.228,0.2263,0.2256,0.2246,0.2234,0.223,0.2213,0.2199,0.2184,0.2164,0.2156,0.2145,0.2141,0.2151,0.2149,0.2148,0.2148,0.2148,0.2147,0.2139,0.214,0.214,0,0.2334,0.2328,0.231,0.2304,0.2295,0.2285,0.2277,0.2263,0.2254,0.2237,0.2232,0.2218,0.2206,0.2184,0.2169,0.2154,0.2149,0.215,0.2147,0.2151,0.2149,0.215,0.2149,0.2151,0.2151,0.2151,0.2152,0,0.2338,0.2332,0.2321,0.2309,0.23,0.2289,0.2277,0.2272,0.2256,0.2247,0.2234,0.2224,0.2206,0.2191,0.2175,0.2165,0.2155,0.2153,0.2152,0.2156,0.2162,0.2158,0.2153,0.2153,0.2153,0.2153,0.2152,0.2152,0.2342,0.2336,0.2323,0.2312,0.2302,0.2292,0.2284,0.2273,0.2262,0.2247,0.2238,0.2225,0.221,0.2187,0.2177,0.2166,0.2163,0.2161,0.2161,0.216,0.2162,0.2164,0.2163,0.2163,0.2163,0.2163,0.2163,0,0.2345,0.2336,0.2326,0.2311,0.2302,0.2295,0.2282,0.2275,0.2264,0.2251,0.224,0.2225,0.2211,0.2195,0.218,0.2174,0.217,0.2171,0.2171,0.2169,0.2165,0.2168,0.2175,0.2175,0.2175,0.2175,0.2175,0.2175,0.2345,0.2335,0.2328,0.2313,0.2304,0.2292,0.2285,0.2275,0.2265,0.2249,0.2238,0.2228,0.2214,0.2199,0.2186,0.2181,0.2176,0.2179,0.2173,0.217,0.2169,0.2168,0.217,0.2178,0.2178,0.2177,0.2177,0.2177]}]]